GW2200 Weather Reports


Display with metric or nautical units.
time (UTC)temp
F
wind
direction
speed
MPH
gust
MPH
rain 1hr
in
rain 24hr
in
rain mn
in
humidity
%
barometer
mb
20260506224003 49 0 0.0 0.0 0.00 0.00 0.00 84 1014.0
20260506223503 49 15 0.0 5.0 0.00 0.00 0.00 84 1014.0
20260506223003 49 30 1.0 5.0 0.00 0.00 0.00 84 1014.0
20260506222503 49 37 1.0 9.0 0.00 0.00 0.00 84 1014.0
20260506222005 50 39 0.0 9.0 0.00 0.00 0.00 84 1014.0
20260506221504 50 321 0.0 9.0 0.00 0.00 0.00 84 1014.0
20260506221003 50 329 1.0 9.0 0.00 0.00 0.00 84 1013.9
20260506220503 50 23 0.0 9.0 0.00 0.00 0.00 84 1013.9
20260506220006 50 27 0.0 9.0 0.00 0.00 0.00 84 1013.8
20260506215503 50 11 0.0 4.0 0.00 0.00 0.00 83 1013.8
20260506215005 50 20 0.0 5.0 0.00 0.00 0.00 83 1013.7
20260506214503 51 351 0.0 5.0 0.00 0.00 0.00 83 1013.6
20260506214024 51 342 0.0 4.0 0.00 0.00 0.00 83 1013.6
20260506213524 51 331 0.0 5.0 0.00 0.00 0.00 82 1013.6
20260506213003 51 340 1.0 8.0 0.00 0.00 0.00 82 1013.7
20260506212503 51 348 1.0 8.0 0.00 0.00 0.00 81 1013.5
20260506212003 51 351 0.0 8.0 0.00 0.00 0.00 81 1013.5
20260506211505 51 331 0.0 8.0 0.00 0.00 0.00 81 1013.5
20260506211003 51 4 0.0 8.0 0.00 0.00 0.00 80 1013.3
20260506210503 52 3 1.0 9.0 0.00 0.00 0.00 80 1013.3
20260506210025 52 6 1.0 9.0 0.00 0.00 0.00 80 1013.3
20260506205503 52 5 2.0 9.0 0.00 0.00 0.00 79 1013.2
20260506205004 52 358 2.0 9.0 0.00 0.00 0.00 79 1013.2
20260506204504 52 7 2.0 10.0 0.00 0.00 0.00 78 1013.1
20260506204003 52 19 2.0 10.0 0.00 0.00 0.00 78 1013.1
20260506203525 52 12 1.0 9.0 0.00 0.00 0.00 78 1013.1
20260506203003 52 351 1.0 8.0 0.00 0.00 0.00 77 1013.1
20260506202524 52 3 2.0 9.0 0.00 0.00 0.00 77 1013.0
20260506202004 53 16 2.0 10.0 0.00 0.00 0.00 76 1012.9
20260506201524 53 12 2.0 10.0 0.00 0.00 0.00 76 1012.9
20260506201003 53 353 2.0 9.0 0.00 0.00 0.00 75 1012.9
20260506200503 53 347 1.0 9.0 0.00 0.00 0.00 75 1012.8
20260506200025 53 28 1.0 10.0 0.00 0.00 0.00 75 1012.8
20260506195503 54 23 1.0 10.0 0.00 0.00 0.00 74 1012.7
20260506195003 54 13 1.0 8.0 0.00 0.00 0.00 74 1012.5
20260506194504 54 4 2.0 11.0 0.00 0.00 0.00 74 1012.4
20260506194024 54 2 2.0 11.0 0.00 0.00 0.00 74 1012.4
20260506193503 54 3 1.0 10.0 0.00 0.00 0.00 73 1012.3
20260506193003 54 5 1.0 10.0 0.00 0.00 0.00 72 1012.4
20260506192504 55 357 0.0 6.0 0.00 0.00 0.00 71 1012.3
20260506192004 55 16 0.0 5.0 0.00 0.00 0.00 70 1012.1
20260506191503 55 18 0.0 9.0 0.00 0.00 0.00 70 1012.1
20260506191003 55 7 1.0 9.0 0.00 0.00 0.00 69 1012.0
20260506190503 55 341 1.0 9.0 0.00 0.00 0.00 69 1011.9
20260506190004 55 353 3.0 11.0 0.00 0.00 0.00 69 1011.8
20260506185524 55 354 3.0 13.0 0.00 0.00 0.00 68 1011.7
20260506185003 56 356 2.0 13.0 0.00 0.00 0.00 68 1011.8
20260506184503 56 360 3.0 10.0 0.00 0.00 0.00 68 1011.7
20260506184003 56 358 3.0 10.0 0.00 0.00 0.00 67 1011.7
20260506183503 56 358 2.0 11.0 0.00 0.00 0.00 68 1011.5
20260506183003 56 352 3.0 11.0 0.00 0.00 0.00 68 1011.4
20260506182504 57 355 3.0 12.0 0.00 0.00 0.00 68 1011.4
20260506182003 57 359 3.0 12.0 0.00 0.00 0.00 68 1011.3
20260506181526 57 356 3.0 11.0 0.00 0.00 0.00 68 1011.2
20260506181026 57 3 4.0 13.0 0.00 0.00 0.00 67 1011.2
20260506180503 57 8 2.0 13.0 0.00 0.00 0.00 67 1011.2
20260506180024 57 354 2.0 13.0 0.00 0.00 0.00 67 1011.2
20260506175503 57 351 3.0 13.0 0.00 0.00 0.00 66 1011.1
20260506175004 58 4 2.0 13.0 0.00 0.00 0.00 66 1011.1
20260506174503 58 360 2.0 13.0 0.00 0.00 0.00 67 1010.9
20260506174024 58 356 3.0 14.0 0.00 0.00 0.00 66 1010.9
20260506173503 58 357 3.0 14.0 0.00 0.00 0.00 67 1010.7
20260506173004 58 1 2.0 11.0 0.00 0.00 0.00 67 1010.8
20260506172503 58 359 2.0 11.0 0.00 0.00 0.00 67 1010.6
20260506172004 58 352 2.0 10.0 0.00 0.00 0.00 67 1010.6
20260506171503 58 1 2.0 11.0 0.00 0.00 0.00 68 1010.7
20260506171003 58 359 3.0 14.0 0.00 0.00 0.00 68 1010.6
20260506170525 58 1 3.0 14.0 0.00 0.00 0.00 68 1010.6
20260506170024 58 3 3.0 11.0 0.00 0.00 0.00 67 1010.6
20260506165503 58 9 2.0 12.0 0.00 0.00 0.00 67 1010.5
20260506165003 58 5 2.0 12.0 0.00 0.00 0.00 67 1010.4
20260506164524 58 11 3.0 12.0 0.00 0.00 0.00 67 1010.5
20260506164024 58 16 2.0 12.0 0.00 0.00 0.00 66 1010.5
20260506163505 59 1 1.0 10.0 0.00 0.00 0.00 66 1010.4
20260506163003 58 7 2.0 10.0 0.00 0.00 0.00 66 1010.3
20260506162504 58 16 2.0 9.0 0.00 0.00 0.00 67 1010.4
20260506162003 58 26 3.0 15.0 0.00 0.00 0.00 67 1010.4
20260506161503 58 29 3.0 15.0 0.00 0.00 0.00 66 1010.3
20260506161003 58 17 3.0 12.0 0.00 0.00 0.00 60 1010.4
20260506160503 58 14 3.0 12.0 0.00 0.00 0.00 63 1010.4
20260506160004 58 26 1.0 9.0 0.00 0.00 0.00 63 1010.3
20260506155503 58 26 2.0 10.0 0.00 0.00 0.00 63 1010.3
20260506155003 58 25 3.0 12.0 0.00 0.00 0.00 65 1010.4
20260506154503 58 25 3.0 12.0 0.00 0.00 0.00 67 1010.4
20260506154003 58 25 1.0 11.0 0.00 0.00 0.00 68 1010.3
20260506153503 58 344 0.0 11.0 0.00 0.00 0.00 68 1010.2
20260506153003 58 360 1.0 11.0 0.00 0.00 0.00 68 1010.3
20260506152503 58 21 2.0 11.0 0.00 0.00 0.00 68 1010.2
20260506152024 58 38 3.0 15.0 0.00 0.00 0.00 67 1010.2
20260506151503 58 39 2.0 15.0 0.00 0.00 0.00 65 1010.1
20260506151003 58 10 1.0 10.0 0.00 0.00 0.00 69 1010.2
20260506150504 58 351 2.0 10.0 0.00 0.00 0.00 69 1010.2
20260506150004 58 357 2.0 12.0 0.00 0.00 0.00 68 1010.0
20260506145503 58 348 2.0 12.0 0.00 0.00 0.00 68 1010.0
20260506145003 58 349 2.0 11.0 0.00 0.00 0.00 68 1010.0
20260506144503 58 349 3.0 12.0 0.00 0.00 0.00 67 1010.1
20260506144003 58 349 4.0 13.0 0.00 0.00 0.00 67 1010.0
20260506143503 58 358 3.0 13.0 0.00 0.00 0.00 67 1010.1
20260506143003 59 4 2.0 13.0 0.00 0.00 0.00 67 1010.0
20260506142503 59 360 2.0 10.0 0.00 0.00 0.00 67 1009.9
20260506142003 59 4 3.0 12.0 0.00 0.00 0.00 67 1010.0
20260506141503 59 3 2.0 12.0 0.00 0.00 0.00 66 1010.1
20260506141003 59 8 3.0 13.0 0.00 0.00 0.00 67 1009.9
20260506140503 59 19 4.0 15.0 0.00 0.00 0.00 66 1010.1
20260506140004 59 22 3.0 15.0 0.00 0.00 0.00 64 1010.0
20260506135503 60 19 3.0 11.0 0.00 0.00 0.00 57 1010.0
20260506135003 60 25 4.0 14.0 0.00 0.00 0.00 51 1010.1
20260506134503 60 25 3.0 14.0 0.00 0.00 0.00 52 1010.0
20260506134003 60 16 2.0 10.0 0.00 0.00 0.00 52 1009.9
20260506133503 60 21 2.0 10.0 0.00 0.00 0.00 51 1009.9
20260506133004 60 30 3.0 14.0 0.00 0.00 0.00 50 1009.9
20260506132504 60 26 5.0 14.0 0.00 0.00 0.00 50 1009.8
20260506132003 61 26 5.0 14.0 0.00 0.00 0.00 43 1010.0
20260506131503 62 28 4.0 16.0 0.00 0.00 0.00 42 1009.9
20260506131024 61 26 4.0 16.0 0.00 0.00 0.00 47 1009.8
20260506130503 61 22 4.0 13.0 0.00 0.00 0.00 47 1009.8
20260506130003 61 16 5.0 16.0 0.00 0.00 0.00 48 1009.8
20260506125524 60 19 6.0 16.0 0.00 0.00 0.00 50 1009.7
20260506125004 60 19 7.0 16.0 0.00 0.00 0.00 48 1009.9
20260506124503 60 13 6.0 16.0 0.00 0.00 0.00 52 1009.8
20260506124003 60 9 6.0 17.0 0.00 0.00 0.00 52 1009.9
20260506123503 60 15 7.0 17.0 0.00 0.00 0.00 52 1009.9
20260506123003 60 27 6.0 14.0 0.00 0.00 0.00 53 1009.7
20260506122527 60 33 5.0 14.0 0.00 0.00 0.00 52 1009.9
20260506122525 60 34 5.0 14.0 0.00 0.00 0.00 52 1009.9
20260506122026 60 23 6.0 15.0 0.00 0.00 0.00 51 1009.8
20260506121504 60 26 7.0 19.0 0.00 0.00 0.00 51 1009.8
20260506121004 60 24 8.0 19.0 0.00 0.00 0.00 51 1009.8
20260506120503 60 20 7.0 16.0 0.00 0.00 0.00 46 1009.7
20260506120005 60 25 6.0 15.0 0.00 0.00 0.00 51 1009.7
20260506115529 60 26 7.0 15.0 0.00 0.00 0.00 52 1009.7
20260506115526 60 26 7.0 15.0 0.00 0.00 0.00 52 1009.7
20260506115003 60 31 5.0 15.0 0.00 0.00 0.00 52 1009.8
20260506114503 60 28 5.0 15.0 0.00 0.00 0.00 52 1009.7
20260506114003 60 18 5.0 13.0 0.00 0.00 0.00 54 1009.8
20260506113503 60 29 4.0 13.0 0.00 0.00 0.00 55 1009.7
20260506113024 60 35 5.0 14.0 0.00 0.00 0.00 56 1009.7
20260506112503 60 31 5.0 14.0 0.00 0.00 0.00 59 1009.8
20260506112003 60 26 6.0 15.0 0.00 0.00 0.00 59 1009.8
20260506111503 59 26 6.0 16.0 0.00 0.00 0.00 60 1009.7
20260506111024 59 24 4.0 16.0 0.00 0.00 0.00 56 1009.7
20260506110503 59 2 3.0 11.0 0.00 0.00 0.00 69 1009.7
20260506110004 59 4 2.0 12.0 0.00 0.00 0.00 68 1009.7
20260506105503 59 23 2.0 12.0 0.00 0.00 0.00 68 1009.7
20260506105003 59 2 3.0 12.0 0.00 0.00 0.00 68 1009.7
20260506104525 59 2 3.0 12.0 0.00 0.00 0.00 67 1009.7
20260506104003 59 8 2.0 14.0 0.00 0.00 0.00 68 1009.7
20260506103503 59 2 3.0 14.0 0.00 0.00 0.00 69 1009.6
20260506103003 59 1 3.0 11.0 0.00 0.00 0.00 69 1009.6
20260506102503 59 9 2.0 11.0 0.00 0.00 0.00 68 1009.8
20260506102003 59 3 3.0 14.0 0.00 0.00 0.00 69 1009.7
20260506101503 59 9 3.0 14.0 0.00 0.00 0.00 69 1009.6
20260506101003 59 18 3.0 12.0 0.00 0.00 0.00 70 1009.7
20260506100503 59 8 4.0 12.0 0.00 0.00 0.00 70 1009.6
20260506100004 58 2 3.0 14.0 0.00 0.00 0.00 72 1009.7
20260506095503 59 358 3.0 14.0 0.00 0.00 0.00 73 1009.6
20260506095004 59 355 3.0 13.0 0.00 0.00 0.00 73 1009.5
20260506094503 58 359 2.0 13.0 0.00 0.00 0.00 73 1009.5
20260506094003 58 13 2.0 10.0 0.00 0.00 0.00 73 1009.6
20260506093503 58 17 2.0 10.0 0.00 0.00 0.00 72 1009.5
20260506093003 58 12 4.0 13.0 0.00 0.00 0.00 72 1009.3
20260506092503 58 7 4.0 14.0 0.00 0.00 0.00 72 1009.5
20260506092004 58 355 3.0 14.0 0.00 0.00 0.00 73 1009.4
20260506091524 58 343 2.0 11.0 0.00 0.00 0.00 73 1009.4
20260506091003 58 359 3.0 11.0 0.00 0.00 0.00 73 1009.4
20260506090503 58 19 5.0 13.0 0.00 0.00 0.00 74 1009.3
20260506090025 58 26 4.0 15.0 0.00 0.00 0.00 74 1009.2
20260506085525 58 21 4.0 15.0 0.00 0.00 0.00 74 1009.2
20260506085003 58 25 4.0 12.0 0.00 0.00 0.00 75 1009.1
20260506084503 58 32 4.0 12.0 0.00 0.00 0.00 75 1009.1
20260506084003 58 23 3.0 12.0 0.00 0.00 0.00 75 1009.2
20260506083503 58 21 3.0 12.0 0.00 0.00 0.00 76 1009.1
20260506083003 57 20 3.0 12.0 0.00 0.00 0.00 76 1009.0
20260506082503 57 4 2.0 10.0 0.00 0.00 0.00 77 1009.0
20260506082026 57 7 2.0 10.0 0.00 0.00 0.00 77 1009.0
20260506081503 57 3 3.0 11.0 0.00 0.00 0.00 77 1008.9
20260506081003 56 358 3.0 11.0 0.00 0.00 0.00 78 1008.8
20260506080503 56 19 3.0 12.0 0.00 0.00 0.00 78 1008.8
20260506073503 54 28 6.0 16.0 0.00 0.00 0.00 83 1008.7
20260506073003 54 23 5.0 16.0 0.00 0.00 0.00 83 1008.7
20260506072503 54 17 3.0 11.0 0.00 0.00 0.00 84 1008.8
20260506072026 54 1 2.0 12.0 0.00 0.00 0.00 85 1008.8
20260506071503 55 343 1.0 12.0 0.00 0.00 0.00 81 1008.9
20260506071003 54 357 3.0 13.0 0.00 0.00 0.00 81 1009.1
20260506070503 54 357 3.0 13.0 0.00 0.00 0.00 81 1008.4
20260506062503 53 5 4.0 11.0 0.00 0.00 0.00 83 1008.9
20260506062003 52 3 3.0 11.0 0.00 0.00 0.00 89 1008.9
20260506061503 52 356 2.0 11.0 0.00 0.00 0.00 89 1008.7
20260506061003 52 357 1.0 7.0 0.00 0.00 0.00 89 1008.7
20260506060527 52 14 0.0 7.0 0.00 0.00 0.00 89 1008.6
20260506051003 51 20 3.0 10.0 0.00 0.00 0.00 89 1008.6
20260506045003 51 349 0.0 6.0 0.00 0.00 0.00 89 1008.8
20260506044503 51 359 0.0 8.0 0.00 0.00 0.00 90 1008.8
20260506044024 51 10 1.0 9.0 0.00 0.00 0.00 90 1008.8
20260506043503 51 15 1.0 9.0 0.00 0.00 0.00 90 1008.7
20260506043024 51 15 1.0 9.0 0.00 0.00 0.00 90 1008.8
20260506042503 51 2 1.0 9.0 0.00 0.00 0.00 90 1008.8
20260506042003 51 351 1.0 9.0 0.00 0.00 0.00 90 1008.8
20260506041503 51 358 1.0 9.0 0.00 0.00 0.00 90 1008.8
20260506041003 51 9 1.0 10.0 0.00 0.00 0.00 90 1008.8
20260506040504 51 5 2.0 10.0 0.00 0.00 0.00 90 1008.7
20260506040003 51 6 2.0 10.0 0.00 0.00 0.00 90 1008.8
20260506035503 51 6 1.0 8.0 0.00 0.00 0.00 90 1008.9
20260506035004 51 359 1.0 9.0 0.00 0.00 0.00 90 1008.8
20260506034504 50 356 1.0 9.0 0.00 0.00 0.00 90 1008.8
20260506034003 50 354 0.0 8.0 0.00 0.00 0.00 90 1008.9
20260506033503 50 5 0.0 5.0 0.00 0.00 0.00 90 1008.9
20260506033004 50 6 0.0 5.0 0.00 0.00 0.00 90 1008.9
20260506032503 50 22 1.0 6.0 0.00 0.00 0.00 90 1008.9
20260506032003 50 17 1.0 8.0 0.00 0.00 0.00 90 1008.9
20260506031503 50 360 0.0 8.0 0.00 0.00 0.00 90 1009.0
20260506031003 50 358 0.0 4.0 0.00 0.00 0.00 90 1009.0
20260506030503 50 360 1.0 10.0 0.00 0.00 0.00 90 1009.0
20260506030003 50 357 1.0 10.0 0.00 0.00 0.00 90 1009.1
20260506025504 50 350 1.0 6.0 0.00 0.00 0.00 90 1009.2
20260506025003 50 350 0.0 6.0 0.00 0.00 0.00 90 1009.1
20260506024503 50 1 0.0 9.0 0.00 0.00 0.00 90 1009.2
20260506024024 50 3 1.0 10.0 0.00 0.00 0.00 90 1009.1
20260506023503 50 2 1.0 10.0 0.00 0.00 0.00 90 1009.1
20260506023026 50 0 0.0 0.0 0.00 0.00 0.00 90 1009.1
20260506023024 50 0 0.0 0.0 0.00 0.00 0.00 90 1009.1
20260506022503 50 18 1.0 9.0 0.00 0.00 0.00 90 1009.1
20260506022003 50 11 1.0 9.0 0.00 0.00 0.00 90 1009.2
20260506021505 50 358 1.0 9.0 0.00 0.00 0.00 90 1009.2
20260506021503 50 358 1.0 9.0 0.00 0.00 0.00 90 1009.2
20260506021003 50 359 1.0 6.0 0.00 0.00 0.00 90 1009.2
20260506020503 50 10 1.0 6.0 0.00 0.00 0.00 90 1009.3
20260506020024 50 359 1.0 7.0 0.00 0.00 0.00 90 1009.3
20260506015507 50 12 1.0 9.0 0.00 0.00 0.00 90 1009.4
20260506015504 50 11 1.0 9.0 0.00 0.00 0.00 90 1009.4
20260506015003 50 12 1.0 9.0 0.00 0.00 0.00 90 1009.3
20260506014503 50 347 0.0 6.0 0.00 0.00 0.00 90 1009.4
20260506014003 50 336 0.0 7.0 0.00 0.00 0.00 90 1009.4
20260506013524 50 340 0.0 7.0 0.00 0.00 0.00 90 1009.4
20260506013028 50 18 1.0 10.0 0.00 0.00 0.00 90 1009.5
20260506013024 50 18 1.0 10.0 0.00 0.00 0.00 90 1009.5
20260506012503 50 18 1.0 10.0 0.00 0.00 0.00 90 1009.4
20260506012004 50 13 1.0 7.0 0.00 0.00 0.00 90 1009.4
20260506011503 50 7 1.0 7.0 0.00 0.00 0.00 90 1009.5
20260506011003 49 357 1.0 6.0 0.00 0.00 0.00 90 1009.4
20260506010507 49 6 1.0 7.0 0.00 0.00 0.00 90 1009.5
20260506010505 49 6 1.0 7.0 0.00 0.00 0.00 90 1009.5
20260506010003 49 13 1.0 9.0 0.00 0.00 0.00 90 1009.6
20260506005503 49 11 1.0 9.0 0.00 0.00 0.00 90 1009.6
20260506005003 49 18 1.0 7.0 0.00 0.00 0.00 90 1009.7
20260506004504 49 30 0.0 6.0 0.00 0.00 0.00 90 1009.7
20260506004003 49 20 0.0 7.0 0.00 0.00 0.00 90 1009.8
20260506003503 49 11 0.0 7.0 0.00 0.00 0.00 90 1009.8
20260506003003 49 22 0.0 8.0 0.00 0.00 0.00 90 1009.8
20260506002503 49 15 0.0 9.0 0.00 0.00 0.00 90 1010.0
20260506002004 49 9 1.0 9.0 0.00 0.00 0.00 90 1010.0
20260506001503 49 7 0.0 7.0 0.00 0.00 0.00 90 1010.0
20260506001003 49 348 1.0 6.0 0.00 0.00 0.00 90 1010.0
20260506000504 49 349 1.0 6.0 0.00 0.00 0.00 90 1010.2
20260506000024 49 7 0.0 8.0 0.00 0.00 0.00 90 1010.1
20260505235507 49 1 1.0 8.0 0.00 0.00 0.00 90 1010.1
20260505235503 49 1 1.0 8.0 0.00 0.00 0.00 90 1010.1
20260505235003 49 13 0.0 6.0 0.00 0.00 0.00 90 1010.3
20260505234503 49 13 0.0 6.0 0.00 0.00 0.00 90 1010.3
20260505234003 49 5 0.0 7.0 0.00 0.00 0.00 90 1010.3
20260505233503 49 3 0.0 7.0 0.00 0.00 0.00 89 1010.4
20260505233003 49 2 1.0 8.0 0.00 0.00 0.00 89 1010.4
20260505232503 49 2 0.0 8.0 0.00 0.00 0.00 89 1010.5
20260505232004 49 20 1.0 8.0 0.00 0.00 0.00 89 1010.5
20260505231503 49 8 1.0 8.0 0.00 0.00 0.00 88 1010.5
20260505231003 49 355 1.0 6.0 0.00 0.00 0.00 88 1010.5
20260505230528 49 354 0.0 3.0 0.00 0.00 0.00 88 1010.5
20260505230524 49 353 0.0 3.0 0.00 0.00 0.00 88 1010.5
20260505230024 49 0 0.0 0.0 0.00 0.00 0.00 87 1010.6
20260505225503 49 1 1.0 6.0 0.00 0.00 0.00 87 1010.6
20260505225004 49 359 1.0 6.0 0.00 0.00 0.00 87 1010.5
20260505224503 49 354 1.0 5.0 0.00 0.00 0.00 86 1010.5